HYSIS

Last updated on Sun Jul 06 2025 00:02:29 GMT+0000 (Coordinated Universal Time)

1 43719U 18096A 25186.60136569 .00000977 15100-9 13365-3 0 9996 2 43719 98.0296 250.1499 0001773 122.8362 237.3019 14.78632029356205
UTC large
Height (km)
Speed (km/s)
/
Latitude / Longitude
Inclination (degrees)
Orbital Period (minutes)
Azimuth
Elevation
Range (km)
Doppler Factor

Next 0 passes for location: London (51.5072 / 0.1276)

Sorry there are no passes over London.